[[{"header":{"parameterUnit":"m.s-1","parameterCategory":1,"la1":30.2991,"la2":30.254,"lo1":-89.0895,"lo2":-89.0444,"dy":0.0017,"dx":0.0017,"nx":28,"ny":28,"refTime":"2025-11-29T09:00:00:Z","depth":0,"parameterNumber":2,"parameterNumberName":"U-component_of_WINDS"},"data":[0,0,0,0,0,0,0,0,0,0,0,0,0,0,0,0,0,0,0,0,0,0,0,0,0,0,0,0,0,0,0,0,0,0,0,0,0,0,0,0,0,0,0,0,0,0,0,0,0,0,0,0,0,0,0,0,0,0,-5.4598,-5.4599,0,-5.4764,-5.4766,-5.4768,-5.4761,-5.4759,-5.4756,-5.4754,-5.4923,-5.4929,-5.4936,0,0,0,0,0,0,0,0,0,0,0,0,0,-5.4271,-5.4277,-5.4597,-5.46,-5.4602,-5.4764,-5.4766,-5.4768,-5.4761,-5.4758,-5.4756,-5.4753,-5.492,-5.4928,-5.4936,0,0,0,0,0,0,0,0,0,0,0,0,0,-5.4423,-5.4279,-5.4597,-5.4618,-5.4621,-5.4763,-5.4766,-5.4769,-5.4762,-5.4758,-5.4755,-5.4752,-5.4918,-5.4927,-5.4937,-5.5069,0,0,-5.4968,-5.4972,0,0,0,0,0,0,0,0,-5.4414,-5.4435,-5.4613,-5.4617,-5.4621,-5.4738,-5.4713,-5.4869,-5.4763,-5.4708,-5.4754,-5.475,-5.4864,-5.4878,-5.4917,-5.5077,-5.5084,-5.4969,-5.4975,-5.4979,-5.4982,0,0,0,0,0,0,0,-5.4404,-5.4427,-5.4663,-5.4615,-5.462,-5.4618,-5.4636,-5.4742,-5.4804,-5.4713,-5.4713,-5.4733,-5.4865,-5.4907,-5.4921,-5.5087,-5.4968,-5.4977,-5.4983,-5.4987,-5.5361,-5.5365,0,0,0,0,0,0,-5.4389,-5.4419,-5.4658,-5.4668,-5.4507,-5.4627,-5.4646,-5.4704,-5.4803,-5.4814,-5.4736,-5.4732,-5.4892,-5.4909,-5.4927,-5.5085,-5.4979,-5.4988,-5.4994,-5.5357,-5.5362,-5.5366,0,0,0,0,0,0,-5.4382,-5.441,-5.4651,-5.4544,-5.4574,-5.4636,-5.4701,-5.4709,-5.4751,-5.482,-5.483,-5.4767,-5.489,-5.4913,-5.5033,-5.5091,-5.4993,-5.5002,-5.5352,-5.5358,-5.5364,-5.5404,0,0,0,0,0,0,-5.4373,-5.4408,-5.4459,-5.4545,-5.458,-5.4756,-5.4704,-5.4715,-5.4768,-5.4765,-5.4852,-5.4863,-5.4889,-5.5018,-5.5043,-5.5103,-5.501,-5.5347,-5.5355,-5.5362,-5.5398,-5.541,-5.5421,0,0,0,0,0,-5.4361,-5.4464,-5.4462,-5.4491,-5.4645,-5.4759,-5.4779,-5.4807,-5.4773,-5.4824,-5.4868,-5.486,-5.5081,-5.5031,-5.5059,-5.5122,-5.5344,-5.5353,-5.5361,-5.5392,-5.5408,-5.5421,0,0,0,0,0,0,-5.4382,-5.4475,-5.4474,-5.4608,-5.4676,-5.4758,-5.4823,-5.4823,-5.4901,-5.4895,-5.4926,-5.4946,-5.5066,-5.5107,-5.5049,-5.5254,-5.5208,-5.5223,-5.5222,-5.5237,-5.5249,-5.5235,-5.5018,0,0,0,0,0,-5.4403,-5.4488,-5.4565,-5.4675,-5.471,-5.4761,-5.4811,-5.4827,-5.4898,-5.4927,-5.498,-5.5049,-5.5133,-5.5188,-5.527,-5.5405,-5.5422,-5.5462,-5.5474,-5.5484,-5.5495,-5.5566,-5.5584,-5.5395,-5.5395,-5.5395,0,0,-5.4446,-5.4507,-5.4559,-5.4681,-5.4736,-5.4822,-5.4785,-5.4878,-5.4942,-5.4941,-5.5057,-5.5099,-5.5178,-5.5305,-5.5364,-5.5343,-5.5552,-5.5495,-5.5502,-5.5508,-5.5577,-5.5595,-5.5611,-5.5401,-5.54,-5.5399,0,0,-5.4567,-5.4623,-5.472,-5.4776,-5.4859,-5.4892,-5.4915,-5.4998,-5.5025,-5.5143,-5.5143,-5.522,-5.5366,-5.5421,-5.5469,-5.5611,-5.5606,-5.5638,-5.5698,-5.5768,-5.5782,-5.5796,-5.5843,-5.586,-5.5649,-5.565,-5.565,0,-5.4608,-5.4739,-5.477,-5.4863,-5.4916,-5.492,-5.5018,-5.507,-5.5175,-5.5211,-5.5187,-5.5369,-5.5423,-5.5562,-5.5597,-5.5636,-5.5662,-5.5626,-5.5778,-5.5792,-5.5804,-5.585,-5.5868,-5.5653,-5.5652,-5.5652,-5.5652,0,-5.4785,-5.4876,-5.4945,-5.5046,-5.5107,-5.5203,-5.5246,-5.5304,-5.5316,-5.5351,-5.547,-5.5535,-5.5629,-5.5664,-5.5676,-5.5805,-5.5789,-5.5771,-5.5725,-5.5825,-5.5868,-5.5886,-5.5657,-5.5656,-5.5655,-5.5654,0,0,-5.4922,-5.504,-5.5064,-5.5109,-5.5201,-5.5272,-5.5367,-5.5459,-5.5507,-5.5581,-5.5659,-5.5783,-5.5767,-5.5821,-5.5839,-5.5901,-5.6006,-5.5876,-5.5878,-5.5894,-5.6149,-5.6159,-5.6179,-5.6005,-5.6008,-5.6011,-5.6141,0,-5.505,-5.5218,-5.5248,-5.5395,-5.5478,-5.5484,-5.5566,-5.5631,-5.5668,-5.5743,-5.5783,-5.5869,-5.5843,-5.5875,-5.5936,-5.598,-5.6057,-5.5972,-5.6076,-5.6079,-5.6052,-5.6202,-5.6213,-5.6332,-5.6159,-5.6162,-5.6164,0,-5.5221,-5.5298,-5.5452,-5.5532,-5.5568,-5.5642,-5.5728,-5.5801,-5.5875,-5.5897,-5.5957,-5.5968,-5.6066,-5.6019,-5.6152,-5.6094,-5.6139,-5.6167,-5.6172,-5.618,-5.6124,-5.621,-5.6371,-5.6388,-5.6191,-5.6189,-5.6187,0,-5.53,-5.5443,-5.5554,-5.5593,-5.569,-5.5741,-5.5783,-5.5854,-5.5907,-5.5983,-5.6018,-5.6104,-5.6151,-5.6217,-5.6251,-5.6214,-5.6382,-5.6338,-5.6401,-5.64,-5.6432,-5.6429,-5.6599,-5.6468,-5.6468,-5.6467,-5.6467,0,-5.5437,-5.5531,-5.559,-5.5658,-5.5762,-5.5797,-5.5899,-5.5941,-5.6004,-5.6078,-5.609,-5.616,-5.6202,-5.6278,-5.6306,-5.6411,-5.6433,-5.6452,-5.6457,-5.6449,-5.6446,-5.6476,-5.6467,-5.6472,-5.6471,-5.647,-5.6469,0,-5.5542,-5.5586,-5.5706,-5.5788,-5.5811,-5.5884,-5.5954,-5.6019,-5.6056,-5.6151,-5.6175,-5.6233,-5.6323,-5.6364,-5.6476,-5.6494,-5.6613,-5.6615,-5.6587,-5.6588,-5.6648,-5.664,-5.684,-5.6866,-5.6721,-5.6722,-5.6723,0,-5.5625,-5.5697,-5.5787,-5.5838,-5.5881,-5.5964,-5.6018,-5.6055,-5.6111,-5.6201,-5.6255,-5.6345,-5.6419,-5.6562,-5.6614,-5.6699,-5.67,-5.6765,-5.6713,-5.6701,-5.6697,-5.669,-5.6696,-5.6772,-5.6774,-5.6775,-5.6776,0,-5.5765,-5.5784,-5.5862,-5.5948,-5.6012,-5.6082,-5.615,-5.6191,-5.6238,-5.6301,-5.6393,-5.645,-5.6564,-5.6653,-5.6741,-5.6784,-5.6787,-5.6792,-5.6811,-5.68,-5.678,-5.6788,-5.6609,-5.6787,-5.6786,-5.6785,-5.6784,-5.6784,-5.5859,-5.5923,-5.5995,-5.6082,-5.6137,-5.62,-5.6265,-5.631,-5.6387,-5.6482,-5.65,-5.6597,-5.6669,-5.6788,-5.6834,-5.691,-5.6895,-5.6923,-5.6929,-5.6934,-5.6935,-5.6772,-5.6927,-5.6927,-5.6927,-5.6927,-5.6926,0,-5.5998,-5.6045,-5.6124,-5.6219,-5.6286,-5.6285,-5.636,-5.6416,-5.6502,-5.6569,-5.6641,-5.6746,-5.6833,-5.6891,-5.6978,-5.7028,-5.7031,-5.7049,-5.7044,-5.7053,-5.6946,-5.6919,-5.7045,-5.7045,-5.7045,-5.7045,-5.7045,-5.7044,-5.6077,-5.6183,-5.621,-5.6343,-5.639,-5.6485,-5.6528,-5.6586,-5.6639,-5.6756,-5.6827,-5.6865,-5.6928,-5.702,-5.7099,-5.7114,-5.7144,-5.7162,-5.7176,-5.7074,-5.7061,-5.7049,-5.7024,-5.7169,-5.7169,-5.7276,-5.7277,-5.7278]},{"header":{"parameterUnit":"m.s-1","parameterCategory":1,"la1":30.2991,"la2":30.254,"lo1":-89.0895,"lo2":-89.0444,"dy":0.0017,"dx":0.0017,"nx":28,"ny":28,"refTime":"2025-11-29T09:00:00:Z","depth":0,"parameterNumber":3,"parameterNumberName":"V-component_of_WINDS"},"data":[0,0,0,0,0,0,0,0,0,0,0,0,0,0,0,0,0,0,0,0,0,0,0,0,0,0,0,0,0,0,0,0,0,0,0,0,0,0,0,0,0,0,0,0,0,0,0,0,0,0,0,0,0,0,0,0,0,0,3.0636,3.0635,0,3.0564,3.0563,3.0563,3.0428,3.0425,3.0422,3.042,3.0349,3.035,3.0351,0,0,0,0,0,0,0,0,0,0,0,0,0,3.066,3.066,3.0636,3.0635,3.0634,3.0564,3.0563,3.0562,3.0428,3.0425,3.0422,3.0419,3.0349,3.035,3.0351,0,0,0,0,0,0,0,0,0,0,0,0,0,3.0625,3.066,3.0636,3.0559,3.0551,3.0565,3.0563,3.0562,3.0429,3.0425,3.0421,3.0417,3.0349,3.035,3.0351,3.0435,0,0,3.0353,3.0354,0,0,0,0,0,0,0,0,3.0627,3.0624,3.0571,3.0564,3.0555,3.0501,3.0546,3.052,3.043,3.0475,3.042,3.0415,3.0403,3.0399,3.0395,3.0432,3.0429,3.0353,3.0354,3.0354,3.0355,0,0,0,0,0,0,0,3.063,3.0627,3.0607,3.057,3.0561,3.0529,3.0519,3.054,3.0462,3.0471,3.0461,3.0454,3.0398,3.0394,3.0392,3.0428,3.0353,3.0354,3.0355,3.0355,3.053,3.0534,0,0,0,0,0,0,3.0643,3.063,3.061,3.0605,3.0582,3.0531,3.0521,3.0522,3.0462,3.0449,3.0458,3.0448,3.0395,3.0391,3.0389,3.0482,3.0354,3.0355,3.0356,3.0526,3.0531,3.0535,0,0,0,0,0,0,3.0644,3.0643,3.0613,3.0615,3.0608,3.0535,3.0538,3.0523,3.0519,3.0452,3.0437,3.0468,3.0391,3.0388,3.0424,3.0478,3.0356,3.0356,3.0521,3.0528,3.0533,3.0671,0,0,0,0,0,0,3.0645,3.0644,3.0674,3.0616,3.0609,3.0648,3.0541,3.0524,3.052,3.0507,3.0457,3.0445,3.0388,3.0424,3.0425,3.0477,3.0357,3.0516,3.0524,3.0531,3.0661,3.0681,3.0698,0,0,0,0,0,3.0647,3.0716,3.0676,3.0674,3.0645,3.0652,3.0647,3.058,3.0525,3.0555,3.0513,3.0447,3.0473,3.0429,3.0429,3.0482,3.0512,3.0522,3.0531,3.0653,3.0677,3.0698,0,0,0,0,0,0,3.0782,3.0707,3.0662,3.0715,3.0691,3.0629,3.0664,3.0608,3.0599,3.0587,3.0505,3.0495,3.0542,3.0516,3.0468,3.0561,3.0482,3.0492,3.0575,3.0598,3.0616,3.062,3.0358,0,0,0,0,0,3.0819,3.0829,3.0763,3.0817,3.0807,3.0739,3.0739,3.0689,3.0661,3.065,3.061,3.0586,3.0589,3.0592,3.0591,3.0658,3.0645,3.0695,3.0714,3.0729,3.0738,3.0771,3.0793,3.0566,3.0566,3.0566,0,0,3.0893,3.0853,3.0865,3.0843,3.0818,3.0832,3.0731,3.0749,3.0759,3.0653,3.0684,3.0655,3.0623,3.0675,3.0696,3.0655,3.0798,3.0741,3.0754,3.0754,3.0783,3.0805,3.0824,3.0572,3.0571,3.057,0,0,3.1035,3.1007,3.1047,3.1025,3.0989,3.0943,3.0954,3.0901,3.0877,3.0907,3.0828,3.0839,3.0846,3.0826,3.0817,3.0955,3.0894,3.0957,3.1053,3.1086,3.1104,3.1119,3.1167,3.1186,3.0967,3.0967,3.0967,0,3.1132,3.1148,3.1075,3.1099,3.1092,3.0997,3.1038,3.102,3.0987,3.0984,3.0939,3.0946,3.0918,3.0964,3.0997,3.0994,3.1003,3.0961,3.1107,3.1122,3.1135,3.118,3.1198,3.0975,3.0974,3.0973,3.0973,0,3.1269,3.1282,3.132,3.1288,3.1285,3.1318,3.1251,3.1258,3.121,3.1169,3.1202,3.1166,3.1155,3.1163,3.1116,3.1203,3.1178,3.1122,3.1041,3.1166,3.1206,3.1223,3.0986,3.0983,3.0981,3.0979,0,0,3.1491,3.142,3.1435,3.142,3.1375,3.1384,3.1413,3.1403,3.1409,3.1391,3.1413,3.1422,3.1369,3.1359,3.131,3.134,3.145,3.1279,3.1277,3.1311,3.1543,3.1584,3.1605,3.1411,3.1414,3.1416,3.1545,0,3.1621,3.1665,3.1601,3.166,3.1671,3.1583,3.1609,3.1585,3.1549,3.1554,3.1515,3.1522,3.1453,3.1446,3.1472,3.1431,3.1495,3.1421,3.143,3.1431,3.1438,3.1626,3.1669,3.1792,3.156,3.1563,3.1565,0,3.1778,3.1766,3.1825,3.1777,3.1779,3.1803,3.1788,3.1795,3.1767,3.1739,3.1729,3.167,3.1697,3.1621,3.1656,3.1607,3.1608,3.1589,3.1592,3.1588,3.1504,3.1625,3.183,3.1848,3.159,3.1588,3.1586,0,3.1931,3.1931,3.1966,3.1956,3.1901,3.192,3.1898,3.1866,3.1864,3.1852,3.185,3.1843,3.1838,3.1835,3.1776,3.1726,3.1819,3.1738,3.1796,3.1797,3.1816,3.1815,3.2022,3.1822,3.1821,3.1821,3.1821,0,3.2082,3.2121,3.2034,3.2056,3.2098,3.2026,3.207,3.204,3.2013,3.2027,3.1952,3.1968,3.1891,3.1899,3.1854,3.189,3.1889,3.1867,3.1854,3.1872,3.1875,3.1869,3.1858,3.1826,3.1825,3.1824,3.1823,0,3.2259,3.2202,3.2234,3.2181,3.2168,3.2202,3.2156,3.2174,3.2135,3.2155,3.2155,3.2094,3.2099,3.2041,3.2036,3.2006,3.2062,3.2036,3.2071,3.2062,3.2122,3.2117,3.233,3.2354,3.2142,3.2144,3.2145,0,3.2357,3.2385,3.2334,3.2339,3.232,3.2329,3.2326,3.2258,3.2259,3.223,3.2252,3.2252,3.2247,3.2261,3.2216,3.2212,3.2183,3.2259,3.2182,3.22,3.2182,3.218,3.2183,3.2274,3.2277,3.2279,3.2281,0,3.2537,3.2508,3.2506,3.2497,3.2496,3.2485,3.2469,3.2477,3.2403,3.2409,3.2413,3.241,3.2405,3.2406,3.2393,3.2372,3.2314,3.2306,3.2318,3.2336,3.2355,3.2344,3.2112,3.23,3.2298,3.2297,3.2296,3.2295,3.2675,3.2696,3.2664,3.2666,3.2647,3.2635,3.2649,3.2612,3.2614,3.2604,3.2565,3.2576,3.2549,3.2526,3.2511,3.252,3.2483,3.2502,3.2506,3.2512,3.2522,3.2356,3.2518,3.2517,3.2516,3.2516,3.2515,0,3.2849,3.2825,3.2827,3.2807,3.281,3.2756,3.2736,3.2742,3.2753,3.2732,3.2729,3.2735,3.2736,3.2693,3.2688,3.2704,3.2677,3.2705,3.2702,3.2698,3.2556,3.2544,3.2726,3.2726,3.2726,3.2726,3.2726,3.2726,3.294,3.2972,3.294,3.2963,3.2938,3.2949,3.2942,3.2931,3.2913,3.2923,3.2923,3.2895,3.2865,3.2859,3.2857,3.2845,3.2846,3.2882,3.286,3.2728,3.2708,3.2688,3.2676,3.2883,3.2884,3.3001,3.3002,3.3003]}]]